Weather History for Spokane, WA

Change the Weather History Date:

Tuesday, May 1, 2012

  Actual Average Record
Temperature  
Mean Temperature 45 °F 51 °F  
Max Temperature 52 °F 62 °F 83 °F (1998)
Min Temperature 37 °F 40 °F 24 °F (1954)
Degree Days  
Heating Degree Days 20 14  
Month to date heating degree days 20 14  
Since 1 July heating degree days 6002 6150  
Cooling Degree Days 0 0  
Month to date cooling degree days 0 0  
Year to date cooling degree days 2 0  
Moisture  
Dew Point 31 °F    
Average Humidity 61    
Maximum Humidity 82    
Minimum Humidity 39    
Precipitation  
Precipitation T in 0.04 in 0.61 in (1883)
Month to date precipitation T 0.04  
Year to date precipitation 9.44 6.05  
Snow  
Snow 0.00 in 0.00 in T in (1988)
Month to date snowfall 0.0 0.0  
Since 1 July snowfall 36.8 44.8  
Snow Depth 0.00 in    
Sea Level Pressure  
Sea Level Pressure 29.83 in    
Wind  
Wind Speed 16 mph (SSW)    
Max Wind Speed 25 mph    
Max Gust Speed 31 mph    
Visibility 10 miles    
Events Rain    
T = Trace of Precipitation, MM = Missing Value Source: NWS Daily Summary

Daily Weather History Graph

Daily Weather History Graph

Search for Another Location

Airport:

Trip Planner

Search our weather history database for the weather conditions in past years. The results will help you decide how hot, cold, wet, or windy it might be!

Date:

Astronomy

May. 01, 2012 Rise Set
Actual Time 5:32 AM PDT 8:03 PM PDT
Civil Twilight 4:57 AM PDT 8:37 PM PDT
Nautical Twilight 4:14 AM PDT 9:21 PM PDT
Astronomical Twilight 3:24 AM PDT 10:12 PM PDT
Moon 2:52 PM PDT (5/1) 2:53 AM PDT (5/1)
Length of Visible Light 15h 40m
Length of Day
14h 31m
Waxing Gibbous, 75% of the Moon is Illuminated
May 1
Waxing Gibbous
May 5
Full
May 12
Last Quarter
May 20
New
May 28
First Quarter

Hourly Weather History & Observations

Time (PDT) Temp. Windchill Dew Point Humidity Pressure Visibility Wind Dir Wind Speed Gust Speed Precip Events Conditions
12:53 AM 42.1 °F 33.3 °F 30.9 °F 65% 29.74 in 10.0 mi SW 19.6 mph 25.3 mph N/A   Partly Cloudy
1:53 AM 41.0 °F 31.6 °F 30.0 °F 65% 29.75 in 10.0 mi SW 20.7 mph - N/A   Partly Cloudy
2:53 AM 39.0 °F 28.5 °F 30.9 °F 73% 29.76 in 10.0 mi SW 23.0 mph 31.1 mph N/A   Mostly Cloudy
3:53 AM 39.0 °F 29.6 °F 32.0 °F 76% 29.79 in 10.0 mi SSW 18.4 mph 25.3 mph N/A   Overcast
4:53 AM 37.9 °F 28.5 °F 32.0 °F 79% 29.81 in 10.0 mi SW 17.3 mph - N/A   Mostly Cloudy
5:53 AM 37.4 °F 27.5 °F 30.2 °F 75% 29.81 in 10.0 mi SSW 18.4 mph 25.3 mph N/A   Mostly Cloudy
6:53 AM 37.0 °F 26.7 °F 30.9 °F 79% 29.83 in 10.0 mi SSW 19.6 mph - N/A   Scattered Clouds
7:53 AM 39.9 °F 31.1 °F 32.0 °F 73% 29.86 in 10.0 mi SSW 17.3 mph 24.2 mph N/A   Scattered Clouds
8:53 AM 42.1 °F 33.3 °F 32.0 °F 67% 29.86 in 10.0 mi SSW 19.6 mph 25.3 mph N/A   Mostly Cloudy
9:53 AM 44.1 °F 36.5 °F 32.0 °F 63% 29.87 in 10.0 mi SSW 17.3 mph - N/A   Mostly Cloudy
10:53 AM 46.9 °F - 32.0 °F 56% 29.87 in 10.0 mi South 17.3 mph 28.8 mph N/A   Mostly Cloudy
11:53 AM 48.9 °F - 30.9 °F 50% 29.87 in 10.0 mi South 16.1 mph 28.8 mph N/A   Mostly Cloudy
12:53 PM 46.0 °F 39.6 °F 35.1 °F 66% 29.88 in 10.0 mi SW 15.0 mph 26.5 mph 0.00 in Rain Light Rain
1:53 PM 48.9 °F - 32.0 °F 52% 29.86 in 10.0 mi SSW 19.6 mph 24.2 mph 0.00 in   Mostly Cloudy
2:53 PM 51.1 °F - 32.0 °F 48% 29.85 in 10.0 mi SW 23.0 mph 29.9 mph N/A   Mostly Cloudy
3:53 PM 51.8 °F - 28.4 °F 41% 29.83 in 10.0 mi SSW 19.6 mph 24.2 mph N/A   Mostly Cloudy
4:53 PM 51.1 °F - 30.0 °F 44% 29.84 in 10.0 mi SSW 19.6 mph 26.5 mph N/A   Mostly Cloudy
5:53 PM 50.0 °F - 27.0 °F 41% 29.83 in 10.0 mi South 17.3 mph - N/A   Scattered Clouds
6:53 PM 48.9 °F - 28.9 °F 46% 29.83 in 10.0 mi SSW 17.3 mph 20.7 mph N/A   Scattered Clouds
7:53 PM 46.0 °F 42.5 °F 30.0 °F 54% 29.83 in 10.0 mi South 6.9 mph - N/A   Scattered Clouds
8:53 PM 45.0 °F 42.6 °F 30.0 °F 56% 29.83 in 10.0 mi SSE 4.6 mph - N/A   Mostly Cloudy
9:53 PM 44.1 °F 40.8 °F 30.9 °F 60% 29.83 in 10.0 mi SSE 5.8 mph - N/A   Mostly Cloudy
10:53 PM 43.0 °F 38.8 °F 32.0 °F 65% 29.81 in 10.0 mi SSE 6.9 mph - N/A   Overcast
11:53 PM 43.0 °F 38.8 °F 32.0 °F 65% 29.80 in 10.0 mi SSE 6.9 mph - N/A   Overcast